Flag for Czech Republic Weather past 2 weeks in Brno, Czech Republic

Now
60 °F

Fog.


Feels Like: 60 °F
Forecast: 48 / 71 °F
Wind: 5 mph from East

Location: Brno / Turany

Current Time: Sep 16, 2014 at 9:56:39 AM

Latest Report: Sep 16, 2014 at 9:00 AM


Visibility: 2 mi

Pressure: 30.09 "Hg

Humidity: 92%

Dew point: 57 °F

Location of BrnoLocation

Historic Weather in Brno — Graph

°F

Brno temperature yesterday

Maximum temperature yesterday: 68 °F (at 6:00 PM)
Minimum temperature yesterday: 56 °F (at 5:00 AM)
Average temperature yesterday: 62 °F

Past Weeks' High & Low Weather Summary

 TemperatureHumidityPressure
High79 °F (Sep 5, 4:00 PM)98% (Sep 15, 3:00 AM)30.10 "Hg (Sep 15, 3:00 AM)
Low54 °F (Sep 11, 4:00 AM)46% (Sep 8, 5:00 PM)29.76 "Hg (Sep 12, 7:00 AM)
Average63 °F81%30.00 "Hg
* Reported Sep 1 8:00 AM — Sep 16 8:00 AM, Brno, Weather by CustomWeather, © 2014

Note: Actual official high and low records may vary slightly from our data, if they occured in-between our weather recording intervals... More about our weather records

Advertising

Brno weather history for previous 24 hours

 ConditionsComfort  
Time TempWeatherWind HumidityBarometerVisibility
8:00 AM
Sep 16
57 °FFog.3 mph91%30.09 "Hg3 mi
7:00 AM56 °FPartly sunny.1 mph92%30.09 "Hg9 mi
6:00 AM57 °FPassing clouds.3 mph91%30.09 "Hg7 mi
5:00 AM56 °FOvercast.1 mph93%30.08 "Hg19 mi
4:00 AM56 °FFog.2 mph92%30.09 "Hg19 mi
3:00 AM57 °FPassing clouds.3 mph90%30.10 "Hg19 mi
2:00 AM57 °FPassing clouds.2 mph91%30.09 "Hg19 mi
1:00 AM58 °FPassing clouds.2 mph89%30.09 "Hg19 mi
12:00 AM59 °FOvercast.3 mph87%30.08 "Hg19 mi
11:00 PM
Sep 15
60 °FPassing clouds.5 mph86%30.09 "Hg19 mi
10:00 PM61 °FOvercast.3 mph80%30.07 "Hg19 mi
9:00 PM62 °FLight rain. Overcast.3 mph81%30.09 "Hg6 mi
8:00 PM65 °FOvercast.8 mph83%30.08 "Hg6 mi
7:00 PM66 °FPartly sunny.3 mph82%30.06 "Hg6 mi
6:00 PM68 °FPartly sunny.2 mph78%30.04 "Hg6 mi
5:00 PM68 °FFog.3 mph78%30.04 "Hg5 mi
4:00 PM68 °FFog.3 mph76%30.04 "Hg5 mi
3:00 PM67 °FFog.3 mph77%30.05 "Hg5 mi
2:00 PM67 °FFog.2 mph78%30.05 "Hg5 mi
1:00 PM65 °FFog.5 mph81%30.06 "Hg4 mi
12:00 PM64 °FFog.6 mph84%30.06 "Hg4 mi
11:00 AM63 °FFog.3 mph87%30.06 "Hg4 mi
10:00 AM63 °FFog.1 mph91%30.05 "Hg5 mi
9:00 AM60 °FFog.1 mph94%30.05 "Hg4 mi
Weather by CustomWeather, © 2014

See weather overviewHow to use our weather pages